Jackson, MI

4:23 AM EDT on October 23, 2019 (GMT -0400)
Jackson County-Reynolds

Weather History for KJXN - August, 2019

Change the Weather History Date:

Saturday, August 31, 2019

  Actual Average Record
Temperature  
Mean Temperature 61 °F 67 °F  
Max Temperature 73 °F 78 °F 93 °F (1953)
Min Temperature 49 °F 57 °F 46 °F (1967)
Degree Days  
Heating Degree Days 4 1  
Month to date heating degree days 13 27  
Since 1 June heating degree days 71 90  
Since 1 July heating degree days 13 35  
Cooling Degree Days 0 4  
Month to date cooling degree days 154 164  
Year to date cooling degree days 559 529  
Since 1 June cooling degree days 549 492  
Growing Degree Days 11 (Base 50)    
Moisture  
Dew Point 50 °F    
Average Humidity 69    
Maximum Humidity 89    
Minimum Humidity 44    
Precipitation  
Precipitation 0.00 in 0.12 in 1.20 in (1975)
Month to date precipitation 1.72 3.47  
Year to date precipitation 21.91 20.92  
Sea Level Pressure  
Sea Level Pressure 30.29 in    
Wind  
Wind Speed 3 mph ()    
Max Wind Speed 12 mph    
Max Gust Speed 17 mph    
Visibility 10.0 miles    
Events      
T = Trace of Precipitation, MM = Missing Value Source: Averaged Metar Reports

Daily Weather History Graph

Daily Weather History Graph

Search for Another Location

Airport or City:

Astronomy

Aug. 31, 2019 Rise Set
Actual Time 7:01 AM EDT 8:13 PM EDT
Civil Twilight 6:32 AM EDT 8:42 PM EDT
Nautical Twilight 5:58 AM EDT 9:17 PM EDT
Astronomical Twilight 5:21 AM EDT 9:53 PM EDT
Moon 8:17 AM EDT (8/31) 9:24 PM EDT (8/31)
Length of Visible Light 14h 09m
Length of Day
13h 11m
New Moon, 2% of the Moon is Illuminated
Aug 31
New Moon
Sep 5
First Quarter
Sep 14
Full
Sep 21
Last Quarter
Sep 28
New

Hourly Weather History & Observations

Time (EDT) Temp. Dew Point Humidity Pressure Visibility Wind Dir Wind Speed Gust Speed Precip Events Conditions
12:56 AM 57.9 °F 48.9 °F 72% 30.23 in 10.0 mi Calm Calm - N/A   Clear
1:56 AM 55.0 °F 48.9 °F 80% 30.25 in 10.0 mi Calm Calm - N/A   Clear
2:56 AM 51.1 °F 48.0 °F 89% 30.26 in 10.0 mi Calm Calm - N/A   Clear
3:56 AM 52.0 °F 48.0 °F 86% 30.27 in 10.0 mi NNE 3.5 mph - N/A   Clear
4:56 AM 50.0 °F 46.9 °F 89% 30.29 in 10.0 mi Calm Calm - N/A   Clear
5:56 AM 51.1 °F 48.0 °F 89% 30.30 in 10.0 mi Calm Calm - N/A   Clear
6:56 AM 50.0 °F 46.0 °F 86% 30.31 in 10.0 mi NE 3.5 mph - N/A   Clear
7:56 AM 53.1 °F 48.9 °F 86% 30.32 in 10.0 mi NE 3.5 mph - N/A   Clear
8:56 AM 57.0 °F 50.0 °F 77% 30.33 in 10.0 mi NE 5.8 mph - N/A   Clear
9:56 AM 59.0 °F 51.1 °F 75% 30.34 in 10.0 mi NNE 5.8 mph - N/A   Partly Cloudy
10:56 AM 64.0 °F 50.0 °F 60% 30.34 in 10.0 mi ENE 10.4 mph - N/A   Mostly Cloudy
11:56 AM 64.9 °F 50.0 °F 58% 30.34 in 10.0 mi East 9.2 mph - N/A   Scattered Clouds
12:56 PM 69.1 °F 52.0 °F 54% 30.33 in 10.0 mi NE 6.9 mph - N/A   Clear
1:56 PM 71.1 °F 48.9 °F 45% 30.32 in 10.0 mi ESE 5.8 mph - N/A   Clear
2:56 PM 72.0 °F 50.0 °F 46% 30.31 in 10.0 mi Variable 3.5 mph - N/A   Partly Cloudy
3:56 PM 71.1 °F 51.1 °F 49% 30.30 in 10.0 mi ESE 6.9 mph - N/A   Clear
4:56 PM 70.0 °F 53.1 °F 55% 30.30 in 10.0 mi East 6.9 mph - N/A   Mostly Cloudy
5:56 PM 69.1 °F 52.0 °F 54% 30.29 in 10.0 mi East 9.2 mph - N/A   Overcast
6:56 PM 68.0 °F 52.0 °F 56% 30.29 in 10.0 mi East 6.9 mph - N/A   Overcast
7:56 PM 66.0 °F 52.0 °F 60% 30.27 in 10.0 mi East 8.1 mph - N/A   Scattered Clouds
8:56 PM 64.0 °F 54.0 °F 70% 30.26 in 10.0 mi East 5.8 mph - N/A   Scattered Clouds
9:56 PM 64.0 °F 54.0 °F 70% 30.27 in 10.0 mi East 5.8 mph - N/A   Clear
10:56 PM 62.1 °F 54.0 °F 75% 30.27 in 10.0 mi East 5.8 mph - N/A   Clear
11:56 PM 61.0 °F 54.0 °F 78% 30.26 in 10.0 mi NE 5.8 mph - N/A   Clear